Terminal Aerodrome Forecast
Issued by NWS

Home | Current Version | Previous Version | Text Only | Print | Product List | Glossary On
Versions: 1 2 3 4 5 6 7 8 9 10 11 12 13 14 15 16 17 18 19 20 21 22 23
000
FTUS41 KPBZ 301800 AAA
TAFAGC
TAF AMD
KAGC 301859Z 3019/3118 23010KT P6SM VCSH BKN035
      TEMPO 3019/3022 3SM -TSRA BKN035CB
     FM310100 23004KT P6SM SCT050
     FM310900 21004KT P6SM BKN035
     FM311500 26010KT P6SM BKN035=

USA.gov is the U.S. government's official web portal to all federal, state and local government web resources and services.